Location: Pardubice
(50.0330°N, 15.7830°E)
Time: 23:56:29
(UTC+01:00)

ISS - Pass Details

Date: 02 October 2020
Orbit: 417 x 420 km, 51.6° (Epoch: 30 October)

Event Time Altitude Azimuth Distance (km) Brightness Sun altitude
Rises 20:20:17 0° 287° (WNW) 2,369 1.8 -18.0°
Reaches altitude 10° 20:22:28 10° 280° (W) 1,503 0.3 -18.4°
Maximum altitude 20:25:38 38° 210° (SSW) 654 -2.7 -18.8°
Enters shadow 20:26:14 35° 183° (S) 702 -2.8 -18.9°
